SILO ALERT LOG


Silo ID Alert Type Alert Message Silo Type Points Depth (mm) Strength Temperature (°C) Humidity (%) Height (mm) Volume (㎥) Weight (t) Flag Time
DJSSD09 Temperature 온도센서 측정값이 0도 미만 121 3031 3433 -45.4 0 4648 646.919 408.982 11 2024-01-14 10:39:31.000
DJDJD04 Humidity 습도센서 측정값이 80% 초과 279 4215 4474 2.9 82.7 3464 419.677 265.32 11 2024-01-14 10:39:31.000
DJHNR03 Temperature 온도센서 상태 이상 호퍼 0 15500 0 -999 -999 -119 0 0 31 2024-01-14 10:39:24.000
DJSSD12 Temperature 온도센서 상태 이상 호퍼 0 11350 0 -999 -999 -120 0 0 31 2024-01-14 10:39:24.000
DJSAD01 Humidity 습도센서 측정값이 80% 초과 477 1507 7315 0.7 86.6 7272 301.043 190.32 0 2024-01-14 09:39:40.000
DJDJD03 Humidity 습도센서 측정값이 80% 초과 62 4873 5075 1.3 82.9 2806 339.977 214.934 0 2024-01-14 09:39:39.000
DJSAD03 Humidity 습도센서 측정값이 80% 초과 445 1664 6153 1.8 84.5 7115 294.569 186.227 0 2024-01-14 09:39:39.000
DJSAD02 Humidity 습도센서 측정값이 80% 초과 384 1130 4259 1.4 86.7 7649 316.663 200.194 11 2024-01-14 09:39:38.000
DJHNR08 Temperature 온도센서 측정값이 0도 미만 376 5387 2215 -1.2 66.8 2292 326.222 206.237 0 2024-01-14 09:39:36.000
DJSAD11 Humidity 습도센서 측정값이 80% 초과 335 1649 3279 0.5 80.7 5930 843.796 533.448 11 2024-01-14 09:39:35.000
DJSSD05 Temperature 온도센서 측정값이 0도 미만 843 2548 4875 -45.4 43.6 5531 769.922 486.744 0 2024-01-14 09:39:33.000
DJSSD04 Temperature 온도센서 상태 이상 0 8200 0 -999 -999 -120 -16.702 0 31 2024-01-14 09:39:33.000
DJHNR01 Humidity 습도센서 측정값이 80% 초과 호퍼 471 4315 4914 4 99.9 11064 472.259 298.562 13 2024-01-14 09:39:32.000
DJSSD01 Humidity 습도센서 측정값이 80% 초과 803 2578 4727 4.5 84.4 5501 765.633 484.033 0 2024-01-14 09:39:32.000
DJSAD08 Humidity 습도센서 측정값이 80% 초과 554 2332 4868 6.4 84.3 5247 746.606 472.004 12 2024-01-14 09:39:32.000
DJSAD17 Humidity 습도센서 측정값이 80% 초과 447 3123 4798 3.1 81.6 4456 443.783 280.56 0 2024-01-14 09:39:31.000
DJDJD01 Temperature 온도센서 측정값이 0도 미만 313 6851 5960 -1 79.4 828 100.321 63.423 11 2024-01-14 09:39:31.000
DJDJD04 Humidity 습도센서 측정값이 80% 초과 277 4208 4474 2.3 82.7 3471 420.56 265.878 11 2024-01-14 09:39:31.000
DJSAD16 Humidity 습도센서 측정값이 80% 초과 87 6268 3383 3.6 80.9 1311 130.615 82.575 11 2024-01-14 09:39:31.000
DJSSD11 Humidity 습도센서 측정값이 80% 초과 호퍼 444 7373 154 0.3 81.1 3856 29.246 15.939 11 2024-01-14 09:39:31.000

[첫 페이지] [9946] [9947] [9948] [9949] 9950 [9951] [9952] [9953] [9954] [마지막 페이지]